STARLINK-1439 (45716 NORAD) Tracking and Keplerian Element Data

This shows tracking and keplerian element data for the satellite.

Feedback or suggestion? Click here.




ElementValue
Catalog45716
NameSTARLINK-1439
Epoch Orbit597
Epoch Day185.50001157
Epoch Year2020
RAAN21.5021
Inclination52.9978
Eccentricity0.0004762
Argument of Perigee286.4774
Mean Anonmoly31.5448
Mean Motion15.71781607
Decay Rate-0.00558111
L11 45716U 20035BM 20185.50001157 -.00558111 00000-0 -45009-2 0 9991
L22 45716 52.9978 21.5021 0004762 286.4774 31.5448 15.71781607 5972

Live tracking and technical data element details for STARLINK-1439 (NORAD 45716). STARLINK-1439 can be tracked NOW for your location showing map with azimuth and elevation plus other details from your city location.

Track the satellite on the map from your city or location and see movement details for azimuth, elevation, latitude, longitude, range, height, and movement on the map or in text.







IsCatalogInMostPopularTable: catalog: 45716, numindb: 7
Update: records affected: 1



GetName: 45716 STARLINK-1439

Hit Count: updated at: Sat, 04 Jul 2020 02:35:04 GMT